Terminal Aerodrome Forecast
Issued by NWS

Home | Current Version | Previous Version | Text Only | Print | Product List | Glossary On
Versions: 1 2 3 4 5 6 7 8 9 10 11 12 13 14
000
FTAK31 PANC 242323
TAFAEN
TAF
PAEN 242323Z 2500/2524 03010KT P6SM VCSH SCT045 OVC060=

USA.gov is the U.S. government's official web portal to all federal, state and local government web resources and services.